Overview Statistics Trail Chart Weather Telemetry Raw packets
 

This is the latest recevied weather packets stored in our database for station/object K6POO-1. If no packets are shown the sender has not sent any weather packets the latest 10 day(s).

<< 64 65 66 67 68 69 70 >>
Time Temp. Humidity Pressure Rain* Wind** Luminosity Snow
1788236810 16.11° C 76% 1014.4 hPa 0 mm - 0 W/m² -
1788236506 16.11° C 76% 1014.3 hPa 0 mm - 0 W/m² -
1788236202 16.11° C 76% 1014.3 hPa 0 mm - 0 W/m² -
1788235896 16.11° C 77% 1014.3 hPa 0 mm - 0 W/m² -
1788235596 16.11° C 77% 1014.2 hPa 0 mm - 0 W/m² -
1788235295 16.11° C 77% 1014.1 hPa 0 mm - 0 W/m² -
1788234994 16.11° C 77% 1014.2 hPa 0 mm - 0 W/m² -
1788234693 16.11° C 77% 1014 hPa 0 mm - 0 W/m² -
1788234387 16.11° C 77% 1014.1 hPa 0 mm - 0 W/m² -
1788234087 16.11° C 76% 1013.9 hPa 0 mm - 0 W/m² -
1788233781 16.11° C 76% 1013.7 hPa 0 mm - 0 W/m² -
1788233481 16.11° C 76% 1013.8 hPa 0 mm - 0 W/m² -
1788233179 16.11° C 76% 1013.8 hPa 0 mm - 0 W/m² -
1788232874 16.11° C 76% 1013.7 hPa 0 mm - 0 W/m² -
1788232569 16.11° C 76% 1013.8 hPa 0 mm - 0 W/m² -
1788232266 16.11° C 77% 1013.7 hPa 0 mm - 0 W/m² -
1788231965 16.11° C 77% 1013.6 hPa 0 mm - 0 W/m² -
1788231660 16.11° C 78% 1013.7 hPa 0 mm - 0 W/m² -
1788231359 16.11° C 79% 1013.6 hPa 0 mm - 0 W/m² -
1788231054 16.11° C 79% 1013.3 hPa 0 mm - 1 W/m² -
1788230749 16.11° C 77% 1013.7 hPa 0 mm - 2 W/m² -
1788230448 16.11° C 77% 1013.7 hPa 0 mm - 4 W/m² -
1788230147 16.67° C 76% 1013.5 hPa 0 mm - 7 W/m² -
1788229842 16.67° C 76% 1013.5 hPa 0 mm - 11 W/m² -
1788229537 16.67° C 75% 1013.4 hPa 0 mm - 16 W/m² -

* Rain latest hour (hover to see other rain measurements)
** Current wind speed in m/s (hover to see current wind gust speed)